• In Netherlands
  • List of Countries
  • For 7 days
  • Water Temperature
  • Satellite Maps
  • Weather Map
  • Weather Widgets
  • user-avatar
    Login

    Hourly Weather Trinidad

    Today, 19 November, Sunday

    Time Temperature Precipitation Wind Pressure Humidity
    00:00 +27°C° 3.3 mm 1 mps 741 mmHg 85%
    01:00 +26°C° 3.3 mm 1 mps 741 mmHg 90%
    02:00 +26°C° 3.3 mm 1 mps 741 mmHg 94%
    03:00 +25°C° 4 mm 1 mps 741 mmHg 95%
    04:00 +25°C° 4 mm 1 mps 741 mmHg 95%
    05:00 +25°C° 4 mm 2 mps 741 mmHg 96%
    06:00 +25°C° 3.8 mm 2 mps 742 mmHg 96%
    07:00 +25°C° 3.8 mm 2 mps 742 mmHg 96%
    08:00 +25°C° 3.8 mm 2 mps 743 mmHg 96%
    09:00 +24°C° 1.9 mm 2 mps 743 mmHg 96%
    10:00 +24°C° 1.9 mm 3 mps 744 mmHg 95%
    11:00 +24°C° 1.9 mm 3 mps 744 mmHg 95%
    12:00 +24°C° 1.1 mm 3 mps 744 mmHg 94%
    13:00 +24°C° 1.1 mm 2 mps 743 mmHg 94%
    14:00 +24°C° 1.1 mm 2 mps 743 mmHg 93%
    15:00 +24°C° 0.4 mm 2 mps 742 mmHg 93%
    16:00 +24°C° 0.4 mm 2 mps 741 mmHg 93%
    17:00 +24°C° 0.4 mm 1 mps 740 mmHg 93%
    18:00 +23°C° 0 mm 1 mps 741 mmHg 93%
    19:00 +23°C° 0 mm 1 mps 741 mmHg 94%
    20:00 +22°C° 0 mm 1 mps 741 mmHg 94%
    21:00 +22°C° 0 mm 1 mps 741 mmHg 93%
    22:00 +20°C° 0 mm 0 mps 742 mmHg 93%
    23:00 +20°C° 0 mm 0 mps 742 mmHg 92%

    Tomorrow, 20 November, Monday

    Time Temperature Precipitation Wind Pressure Humidity
    00:00 +20°C° 0 mm 0 mps 742 mmHg 92%
    01:00 +20°C° 0 mm 0 mps 742 mmHg 92%
    02:00 +20°C° 0 mm 0 mps 741 mmHg 93%
    03:00 +20°C° 0 mm 0 mps 741 mmHg 93%
    04:00 +19°C° 0 mm 0 mps 741 mmHg 92%
    05:00 +19°C° 0 mm 0 mps 741 mmHg 92%
    06:00 +21°C° 0 mm 0 mps 742 mmHg 85%
    07:00 +23°C° 0 mm 0 mps 742 mmHg 78%
    08:00 +25°C° 0 mm 0 mps 743 mmHg 71%
    09:00 +30°C° 0 mm 1 mps 743 mmHg 62%
    10:00 +33°C° 0 mm 1 mps 743 mmHg 53%
    11:00 +36°C° 0 mm 1 mps 743 mmHg 45%
    12:00 +36°C° 0 mm 1 mps 742 mmHg 43%
    13:00 +37°C° 0 mm 2 mps 741 mmHg 42%
    14:00 +37°C° 0 mm 2 mps 740 mmHg 40%
    15:00 +37°C° 0 mm 2 mps 739 mmHg 43%
    16:00 +36°C° 0 mm 2 mps 738 mmHg 45%
    17:00 +36°C° 0 mm 2 mps 738 mmHg 47%
    18:00 +34°C° 0 mm 2 mps 738 mmHg 54%
    19:00 +31°C° 0 mm 2 mps 739 mmHg 61%
    20:00 +29°C° 0 mm 2 mps 740 mmHg 67%
    21:00 +28°C° 0 mm 2 mps 740 mmHg 70%
    22:00 +28°C° 0 mm 2 mps 741 mmHg 73%
    23:00 +27°C° 0 mm 2 mps 742 mmHg 76%

    Day after tomorrow, 21 November, Tuesday

    Time Temperature Precipitation Wind Pressure Humidity
    00:00 +27°C° 0 mm 2 mps 741 mmHg 79%
    01:00 +26°C° 0 mm 2 mps 740 mmHg 82%
    02:00 +26°C° 0 mm 2 mps 740 mmHg 85%
    03:00 +26°C° 0 mm 2 mps 740 mmHg 86%
    04:00 +25°C° 0 mm 1 mps 740 mmHg 87%
    05:00 +25°C° 0 mm 1 mps 739 mmHg 88%
    06:00 +26°C° 0 mm 2 mps 740 mmHg 82%
    07:00 +28°C° 0 mm 2 mps 741 mmHg 76%
    08:00 +29°C° 0 mm 2 mps 741 mmHg 70%
    09:00 +31°C° 0 mm 3 mps 741 mmHg 63%
    10:00 +34°C° 0 mm 3 mps 742 mmHg 55%
    11:00 +36°C° 0 mm 4 mps 742 mmHg 47%
    12:00 +37°C° 0 mm 4 mps 741 mmHg 44%
    13:00 +38°C° 0 mm 4 mps 740 mmHg 42%
    14:00 +38°C° 0 mm 4 mps 739 mmHg 39%
    15:00 +38°C° 0 mm 3 mps 739 mmHg 42%
    16:00 +37°C° 0 mm 3 mps 738 mmHg 44%
    17:00 +37°C° 0 mm 3 mps 738 mmHg 46%
    18:00 +35°C° 0 mm 2 mps 738 mmHg 51%
    19:00 +32°C° 0 mm 2 mps 739 mmHg 56%
    20:00 +30°C° 0 mm 1 mps 740 mmHg 62%
    21:00 +30°C° 0 mm 1 mps 740 mmHg 62%
    22:00 +30°C° 0 mm 1 mps 740 mmHg 62%
    23:00 +30°C° 0 mm 2 mps 741 mmHg 62%

    22 November, Wednesday

    Time Temperature Precipitation Wind Pressure Humidity
    00:00 +30°C° 0 mm 2 mps 741 mmHg 63%
    01:00 +29°C° 0 mm 1 mps 740 mmHg 63%
    02:00 +29°C° 0 mm 1 mps 740 mmHg 63%
    03:00 +29°C° 0 mm 1 mps 740 mmHg 67%
    04:00 +28°C° 0 mm 1 mps 740 mmHg 72%
    05:00 +27°C° 0 mm 1 mps 741 mmHg 76%
    06:00 +27°C° 0.5 mm 1 mps 742 mmHg 78%
    07:00 +28°C° 0.5 mm 2 mps 742 mmHg 80%
    08:00 +28°C° 0.5 mm 2 mps 743 mmHg 83%
    09:00 +29°C° 1 mm 2 mps 743 mmHg 80%
    10:00 +30°C° 1 mm 2 mps 743 mmHg 78%
    11:00 +30°C° 1 mm 2 mps 743 mmHg 76%
    12:00 +29°C° 2 mm 2 mps 743 mmHg 80%
    13:00 +28°C° 2 mm 2 mps 742 mmHg 85%
    14:00 +26°C° 2 mm 2 mps 742 mmHg 90%
    15:00 +25°C° 0.6 mm 2 mps 742 mmHg 91%
    16:00 +25°C° 0.6 mm 2 mps 741 mmHg 92%
    17:00 +24°C° 0.6 mm 1 mps 741 mmHg 93%
    18:00 +24°C° 0.2 mm 1 mps 742 mmHg 94%
    19:00 +24°C° 0.2 mm 1 mps 742 mmHg 94%
    20:00 +24°C° 0.2 mm 1 mps 743 mmHg 95%
    21:00 +22°C° 0.2 mm 0 mps 743 mmHg 95%
    22:00 +22°C° 0.2 mm 0 mps 744 mmHg 95%
    23:00 +22°C° 0.2 mm 0 mps 744 mmHg 95%

    23 November, Thursday

    Time Temperature Precipitation Wind Pressure Humidity
    00:00 +22°C° 0 mm 0 mps 744 mmHg 96%
    01:00 +24°C° 0 mm 1 mps 743 mmHg 96%
    02:00 +24°C° 0 mm 1 mps 743 mmHg 97%
    03:00 +24°C° 0 mm 1 mps 743 mmHg 97%
    04:00 +24°C° 0 mm 1 mps 743 mmHg 96%
    05:00 +24°C° 0 mm 1 mps 743 mmHg 96%
    06:00 +24°C° 0 mm 1 mps 743 mmHg 94%
    07:00 +25°C° 0 mm 1 mps 744 mmHg 91%
    08:00 +25°C° 0 mm 1 mps 745 mmHg 88%
    09:00 +28°C° 0 mm 1 mps 744 mmHg 76%
    10:00 +30°C° 0 mm 1 mps 744 mmHg 63%
    11:00 +32°C° 0 mm 1 mps 744 mmHg 51%
    12:00 +34°C° 0 mm 1 mps 743 mmHg 47%
    13:00 +35°C° 0 mm 1 mps 742 mmHg 43%
    14:00 +37°C° 0 mm 1 mps 741 mmHg 38%
    15:00 +36°C° 0 mm 1 mps 740 mmHg 40%
    16:00 +35°C° 0 mm 1 mps 740 mmHg 41%
    17:00 +35°C° 0 mm 1 mps 739 mmHg 43%
    18:00 +33°C° 0 mm 1 mps 739 mmHg 50%
    19:00 +31°C° 0 mm 1 mps 740 mmHg 58%
    20:00 +28°C° 0 mm 1 mps 741 mmHg 65%
    21:00 +28°C° 0 mm 1 mps 741 mmHg 70%
    22:00 +27°C° 0 mm 1 mps 741 mmHg 74%
    23:00 +26°C° 0 mm 1 mps 742 mmHg 79%

    24 November, Friday

    Time Temperature Precipitation Wind Pressure Humidity
    00:00 +26°C° 0 mm 1 mps 741 mmHg 81%
    01:00 +26°C° 0 mm 1 mps 741 mmHg 84%
    02:00 +25°C° 0 mm 1 mps 740 mmHg 86%
    03:00 +25°C° 0 mm 1 mps 740 mmHg 88%
    04:00 +23°C° 0 mm 0 mps 740 mmHg 89%
    05:00 +23°C° 0 mm 0 mps 741 mmHg 90%
    06:00 +24°C° 0 mm 0 mps 741 mmHg 83%
    07:00 +28°C° 0 mm 1 mps 742 mmHg 76%
    08:00 +30°C° 0 mm 1 mps 742 mmHg 69%
    09:00 +32°C° 0 mm 1 mps 742 mmHg 61%
    10:00 +35°C° 0 mm 2 mps 742 mmHg 54%
    11:00 +37°C° 0 mm 2 mps 742 mmHg 47%
    12:00 +37°C° 0 mm 2 mps 741 mmHg 46%
    13:00 +37°C° 0 mm 2 mps 740 mmHg 46%
    14:00 +37°C° 0 mm 2 mps 739 mmHg 45%
    15:00 +37°C° 0 mm 2 mps 738 mmHg 47%
    16:00 +37°C° 0 mm 2 mps 738 mmHg 48%
    17:00 +36°C° 0 mm 2 mps 738 mmHg 50%
    18:00 +35°C° 0 mm 2 mps 738 mmHg 56%
    19:00 +32°C° 0 mm 2 mps 739 mmHg 61%
    20:00 +31°C° 0 mm 2 mps 739 mmHg 67%
    21:00 +30°C° 0 mm 2 mps 740 mmHg 69%
    22:00 +29°C° 0 mm 2 mps 740 mmHg 72%
    23:00 +29°C° 0 mm 2 mps 741 mmHg 75%
    Show more